User: anonymous   Login
Location: Unspecified
(0.0000°N, 0.0000°E)
Time: 22:53:17
(UTC+00:00)
Language:

UGATUSAT - Orbit

View from above orbital plane
View from above orbital plane
View from above satellite
View from above satellite

Ground track
Ground track

The orbit data is extracted from the following two-line orbital elements,

1 35869U 09049E   18344.51526689 -.00000018  00000-0  10320-4 0  9995
2 35869  98.4020 345.5090 0004800  18.7854 341.3501 14.22403733479126
Epoch (UTC): 10 December 2018 12:21:59
Eccentricity: 0.0004800
inclination: 98.4020°
perigee height: 814 km
apogee height: 820 km
right ascension of ascending node: 345.5090°
argument of perigee: 18.7854°
revolutions per day: 14.22403733
mean anomaly at epoch: 341.3501°
orbit number at epoch: 47912

The dashed part of the orbit path shows where the satellite is in the earth's shadow,  

DLR